Location: Izdebno
(52.6670°N, 16.2170°E)
Time: 04:24:55
(UTC+02:00)

Transit 4A - Pass Details

Date: 02 March 2024
Orbit: 871 x 972 km, 66.8° (Epoch: 22 April)

Event Time Altitude Azimuth Distance (km) Brightness Sun altitude
Rises 09:27:00 0° 316° (NW) 3,497 10.3 21.4°
Reaches altitude 10° 09:29:49 10° 305° (NW) 2,543 9.7 21.7°
Maximum altitude 09:34:42 28° 249° (WSW) 1,579 9.1 22.2°
Drops below altitude 10° 09:39:32 10° 192° (SSW) 2,514 10.8 22.6°
Sets 09:42:18 0° 181° (S) 3,449 11.6 22.9°
